Accueil
METAR-TAF:

METAR-TAF

Aéroports :

Majuro, Majuro Atoll, Îles Marshall

NWS Office

latitude: 07-05N, longitude: 171-12E, altitude: 4 m

Observation

Le bulletin a été fait il y a 45 minutes, à 21:53 UTC
Vent 12 kt de est/nord-est
Température 31°C
Humidité 71%
Pression 1014 hPa
Visibilité: 32.2 km
Quelques nuages à une hauteur de 1600 ft
Nuages épars à une hauteur de 30000 ft

METAR: PKMR 232153Z 07012KT 20SM FEW016 SCT300 31/25 A2995 RMK SLP142 T03090254

Heure: 10:38 (22:38 UTC)


TAF: absent

Observations et prévisions météorologiques de plus de 4000 aéroports (messages METAR et TAF).

Les stations disponibles sont représentées par des disques jaunes et rouges sur la carte.

Passer la souris dessus pour voir le nom de la station.

Cliquer dessus pour voir les observations et prévisions météorologiques.

Pour changer de carte: cliquez sur les boutons verts avec une croix noire pour zoomer, sur le bouton vert avec un tiret pour effectuer un zoom arrière, ou sur les flèches vertes pour les cartes adjacentes.


METAR-TAF: